Torna al catalogo

STARLINK-34466

AttivoComunicazioniVLEO
NORAD 66226·PAYLOAD·🇺🇸 United States

Lanciato Oct 28, 2025 da Vandenberg Space Force Base

Loading…

Prossimi Passaggi (prossime 24 ore)

TLE

AggiornatoSource: CelesTrak SupGP

Epoca: Sep 14, 2026, 22:43 UTC

1 66226C 25244W   26257.94701389  .00039387  00000+0  11639-2 0  2570
2 66226  53.1586  67.4385 0001069  77.3738 275.5591 15.34365464    12

Traccia STARLINK-34466 in tempo reale con AllMySat

Download on the App Store